Showing default

CYGFM04, 41885

Orbit data source: Space-Track

CYGFM04, 41885 is an American payload satellite in LEO that was launched on Thu, 15 Dec 2016 UTC via a PEGASUS XL launch vehicle from the Pegasus Launch, Eastern Range Air Space (ERAS). Payloads include a variety of satellites, spacecraft, and rockets equipped with specific instruments for various scientific and technological missions. These include communications satellites like Starlink; space stations such as the ISS; scientific satellites like the Hubble; Earth observation satellites from companies like Planet Labs, Umbra, and HawkEye 360; GPS; miniature CubeSats for education and research; and military/defense satellites.

Loading next visibility...
CYGFM04 details
Identifier
41885, 2016-078B
Orbit
LEO
Last TLE update6 hours ago
Origin
Flag of USLARCN/SWRIB (US)
ManufacturerSST-US
MissionExtended mission Civil Science
Bus & MotorCYGNSS, Unknown motor
Mass29 kg wet, 29 kg dry
Launch date (UTC)
2016-12-15 (8 years ago)
Launch vehicle
PEGASUS XL
Launch site
Pegasus Launch, Eastern Range Air Space (ERAS)
Object type
Payload
Rocket body
Debris
Shape & HBRHalf Hex Cyl + 2 Pan, 1.7 m
Radar Cross Section0.450 m², Medium (>0.1 m² and < 1m²)

Expand to show TLE details & history

TLE from 6 hours ago
0 CYGFM04
1 41885U 16078B   24361.53518287  .00023207  00000-0  65616-3 0  9994
2 41885  34.9357 139.2513 0008460 171.3426 188.7438 15.35360868445675
Epoch: 2024-12-26T12:50Z
Definitive object data (Epoch: 2024-12-26T12:50:39.799Z)
Latitude-0.00006°
Longitude-148.9278°
Altitude464.46 km
Speed7.633 km/s
True Right ascension09h 17m 00s
True Declination0° 00' 00"
Sunlit
Object was in full shadow at TLE epoch
Visualization TLE readout
Latitude-4.18292°
Longitude-156.56377°
Altitude465.125 km
Speed7.633 km/s
Apparent Right ascension07h 48m 05s
Apparent Declination-22° 11' 52"
Sunlit
Object is in full shadow
Visualization observer readout
Local Sidereal Time18:25:53
Azimuth309.356° NW
Elevation-65.146°
Doppler factor1
Orbital elements
Apogee altitude468.914 km
Perigee altitude457.339 km
Semi-major axis6,841.264 km
Eccentricity0.000846
Inclination34.9357°
RAAN139.2513°
Arg. of periapsis171.3426°
True anomaly188.72908°
Mean anomaly188.7438°
Eccentric anomaly188.73644°
Mean motion3.83565 °/min
BSTAR0.00065616
Orbital period93.86 mins
Loading maneuver chart data...
Loading historical data...
Loading historical data...
Loading historical data...
Loading historical data...
Loading historical data...
Loading historical data...
Loading historical data...

CYGFM04 Visibility forecast

Observer location: undefined°, undefined

Span
Click to sort rows by Start time (UTC) header in descending order
Start Az.
Max El. time (UTC)
Max El. Az.
Max El.
End time (UTC)
End Az.
5 mins2024-12-27 14:06:17.767Z219.48° SW2024-12-27 14:08:17.767Z172.521° S25.931°2024-12-27 14:11:17.767Z109.529° ESE
5 mins2024-12-27 15:45:17.767Z235.212° WSW2024-12-27 15:47:17.767Z173.339° S29.836°2024-12-27 15:50:17.767Z116.948° SE
|